Location: Newark
(43.4000°N, 45.7167°E)
Time: 07:06:54
(UTC+00:00)

N. Korean satellite - Visible Passes

Search period start: 18 October 2019 00:00
Search period end: 28 October 2019 00:00
Orbit: 455 x 508 km, 97.2° (Epoch: 18 October)

Date Brightness Start Highest point End Pass type
(mag) Time Alt. Az. Time Alt. Az. Time Alt. Az.
18 Oct 8.2 02:31:52 10° NNE 02:35:18 41° E 02:38:45 10° S visible
18 Oct 9.1 14:42:05 10° SSW 14:45:00 26° W 14:47:58 10° NW visible
19 Oct 9.6 02:07:08 10° NE 02:09:54 20° E 02:12:40 10° SE visible
20 Oct 10.5 01:43:47 10° E 01:44:24 10° E 01:45:00 10° E visible
21 Oct 9.9 15:00:23 10° SW 15:02:36 16° W 15:04:50 10° NW visible
22 Oct 8.7 02:24:09 10° NNE 02:27:28 33° E 02:30:49 10° SSE visible
22 Oct 8.6 14:34:01 10° SSW 14:37:08 32° W 14:40:18 10° NNW visible
23 Oct 9.9 01:59:35 10° NE 02:02:02 17° E 02:04:29 10° SE visible
25 Oct 7.4 02:41:22 10° NNE 02:44:59 56° E 02:48:37 10° S visible
25 Oct 9.6 14:52:04 10° SW 14:54:40 20° W 14:57:18 10° NW visible
26 Oct 9.1 02:16:26 10° NE 02:19:36 27° E 02:22:47 10° SSE visible
26 Oct 8.1 14:25:57 10° S 14:29:13 41° W 14:32:34 10° NNW visible
27 Oct 10.2 01:52:06 10° ENE 01:54:07 14° E 01:56:09 10° SE visible
